Regional Weather Roundup
Issued by NWS Charleston, WV

Home | Current Version | Previous Version | Graphics & Text | Print | Product List | Glossary On
Versions: 1 2 3 4 5 6 7 8 9 10 11 12 13 14 15 16 17 18 19 20 21 22 23 24 25 26 27 28 29 30 31 32 33 34 35 36 37 38 39 40 41 42 43 44 45 46 47 48 49 50
578
ASUS41 KRLX 111310
RWRRLX
West Virginia Regional Weather Roundup
National Weather Service Charleston WV
800 AM EST THU FEB 11 2016

Note: "fair" indicates few or no clouds below 12,000 feet with no
significant weather and/or obstructions to visibility.

WVZ003-111400-
Northern Panhandle of West Virginia

CITY           SKY/WX    TMP DP  RH WIND       PRES   REMARKS
WHEELING       CLOUDY    10   4  76 W14       30.09R WCI  -6
$$

WVZ009-111400-
Northwest West Virginia

CITY           SKY/WX    TMP DP  RH WIND       PRES   REMARKS
PARKERSBURG      N/A     10   3  73 W8        30.22R WCI  -2
$$

WVZ006-111400-
Western West Virginia

CITY           SKY/WX    TMP DP  RH WIND       PRES   REMARKS
HUNTINGTON     CLOUDY    16   7  67 CALM      30.22R
$$

WVZ015-111400-
West Central West Virginia

CITY           SKY/WX    TMP DP  RH WIND       PRES   REMARKS
CHARLESTON     MOCLDY    16   4  59 NW7       30.20R WCI   6
$$

WVZ022-031-111400-
North Central West Virginia

CITY           SKY/WX    TMP DP  RH WIND       PRES   REMARKS
CLARKSBURG     CLOUDY    12   5  73 W13G20    30.13R WCI  -3
MORGANTOWN     CLOUDY    11   2  67 SW7       30.11R WCI   0
$$

WVZ025-035-042-045-111400-
Southern West Virginia

CITY           SKY/WX    TMP DP  RH WIND       PRES   REMARKS
BECKLEY        CLOUDY    11   3  70 NW7       30.05R WCI   0
LOGAN          MOCLDY    14   5  67 W6        30.14R WCI   5
BLUEFIELD      FLURRIES   9   4  80 NW10      30.03R WCI  -5
LEWISBURG      CLOUDY    13   5  69 CALM      30.04R
$$

WVZ047-111400-
Northern Mountains of West Virginia

CITY           SKY/WX    TMP DP  RH WIND       PRES   REMARKS
ELKINS         LGT SNOW  10   2  69 W5        30.05R WCI   2
$$

WVZ052-111400-
Eastern Panhandle of West Virginia

CITY           SKY/WX    TMP DP  RH WIND       PRES   REMARKS
MARTINSBURG      N/A     17   2  51 W12G21    30.06R WCI   4
PETERSBURG       N/A     17   1  50 W17G26    30.08R WCI   1
$$




USA.gov is the U.S. government's official web portal to all federal, state and local government web resources and services.